Theta_e
309 308 308 308 308 307 307 309 309 310 312 314 318 320 318 314 307 308 311 310 311 305 306 313 313 315 317 318 317 314 316 317 317 316 318 315 315 314 313 312 312 313 314 314 313
306 306 307 306 308 306 307 309 309 308 312 312 317 320 317 312 311 314 311 308 305 304 309 313 313 314 314 316 315 314 315 315 315 316 316 315 313 312 311 311 311 311 310 310 309
304 305 305 306 308 308 305 304 305 307 310 312 319 317 313 312 314 315 314 309 305 305 308 311 312 312 312 313 313 313 316 313 314 314 312 311 310 309 309 311 310 309 309 309 308
301 303 304 305 307 306 306 304 304 307 307 313 316 318 311 312 316 314 312 309 306 306 307 309 310 310 312 312 310 313 312 312 311 309 309 309 308 309 309 309 309 308 308 308 308
300 301 303 305 306 306 306 304 301 307 307 315 315 314 310 314 312 312 308 306 306 307 308 308 308 309 311 310 309 310 309 308 308 307 307 306 307 308 308 308 308 308 308 309 310
300 301 302 303 303 303 305 305 300 306 311 313 312 313 312 312 310 307 306 305 307 307 308 308 308 309 309 309 310 308 308 308 307 306 306 307 308 307 309 308 309 310 312 312 312
301 300 303 302 304 305 305 301 302 305 312 313 311 310 311 309 307 306 305 305 306 307 307 307 307 309 308 308 307 307 309 308 307 307 308 307 312 310 309 309 310 312 312 312 311
302 301 302 302 304 303 302 301 305 307 310 312 312 312 306 306 307 306 306 305 305 305 305 306 307 307 308 305 306 309 308 311 308 308 308 309 312 314 310 310 311 312 312 311 311
302 301 302 301 301 301 300 301 306 308 311 310 311 309 306 306 307 307 307 306 305 304 303 303 305 306 306 309 310 309 313 310 311 309 310 311 313 313 312 313 313 313 312 312 312
302 300 302 305 302 299 300 306 306 308 310 309 308 308 306 306 307 307 306 306 306 306 306 307 307 309 309 312 321 313 310 310 310 311 310 312 313 314 314 314 314 312 313 313 313
302 303 305 305 304 303 306 307 307 306 309 309 309 308 306 306 307 307 307 307 307 308 310 307 315 315 309 307 308 309 310 311 311 311 311 314 314 315 314 313 313 313 313 314 315
302 305 304 305 304 306 307 305 305 304 305 306 307 307 307 307 307 307 307 308 309 310 308 311 312 307 307 308 309 310 311 313 313 311 313 315 315 316 313 313 312 313 313 313 313
304 305 306 305 305 306 307 306 306 307 307 307 306 307 307 308 308 308 308 308 310 311 310 313 309 307 308 309 310 311 312 313 313 314 315 315 319 315 313 311 312 313 313 312 312
305 305 305 305 306 306 307 307 306 307 312 308 308 307 307 307 308 308 308 309 309 311 311 310 306 307 308 310 310 316 310 311 314 315 320 314 321 317 315 313 313 314 312 310 310
305 305 305 307 306 307 307 307 306 307 318 308 308 308 308 309 307 307 308 309 310 309 311 310 309 310 312 312 310 314 311 313 313 313 314 316 318 318 314 315 315 312 310 309 308
305 305 307 307 307 307 308 306 305 316 312 310 309 309 309 309 309 308 308 308 308 309 310 309 307 309 311 310 309 310 314 313 313 313 319 317 316 318 318 316 313 311 309 308 307
306 306 306 305 308 308 306 305 316 313 307 309 309 309 309 309 310 310 311 311 312 314 313 311 311 309 308 314 313 314 317 323 322 322 324 313 315 317 316 314 312 309 308 306 306
306 307 307 306 307 307 306 312 312 308 309 308 309 310 311 311 311 311 312 314 311 311 314 317 316 312 311 314 315 315 316 317 319 323 321 314 317 320 315 313 311 308 306 305 305
307 306 306 306 306 306 310 314 310 310 309 309 310 312 312 311 311 312 313 313 311 311 316 318 317 310 310 311 314 316 316 314 316 315 315 318 319 317 315 313 310 308 307 304 304
308 309 307 307 306 310 312 310 310 309 309 310 310 311 312 312 313 313 314 311 312 310 311 313 318 312 313 312 312 315 314 315 316 317 319 319 318 320 316 313 311 309 306 304 305
307 312 308 309 311 311 315 311 309 308 309 311 311 311 312 313 313 313 313 312 311 311 311 312 314 315 311 314 317 315 315 314 314 314 316 315 318 318 315 313 311 309 306 305 305
310 315 308 311 315 313 314 310 308 309 309 311 310 312 313 312 313 313 314 313 311 311 313 313 314 316 315 313 313 314 315 314 314 313 314 314 314 315 314 312 310 308 306 306 305
311 311 308 311 317 314 311 310 310 311 311 311 312 312 311 312 313 313 312 312 311 312 313 313 315 316 314 311 311 312 312 313 314 312 312 312 313 315 313 312 311 309 308 307 307
310 316 312 310 310 312 312 312 312 309 310 310 311 311 311 312 312 313 313 312 311 312 310 311 313 314 314 312 312 312 311 312 313 314 312 313 312 313 314 314 312 310 309 308 308
309 310 308 315 311 311 311 311 312 312 310 310 311 312 312 313 312 312 312 311 310 311 312 313 314 313 313 312 311 311 311 311 312 312 313 312 310 310 311 312 312 312 311 310 309
311 311 307 309 308 311 309 312 311 311 311 311 311 311 311 312 312 312 311 311 311 311 312 312 313 312 311 310 310 310 310 311 311 311 311 311 312 311 310 310 311 311 312 310 310
306 306 308 307 310 310 311 311 311 310 310 310 310 310 310 310 309 309 309 310 310 310 312 312 312 312 312 311 311 312 311 310 309 310 310 311 310 310 311 311 311 311 312 311 310
Wind_Speed
4 8 7 8 6 5 5 3 4 3 11 18 10 18 13 10 9 10 5 5 5 10 12 8 8 9 7 4 2 1 3 4 3 3 6 3 2 1 3 10 8 8 10 12 14
3 1 5 8 8 7 9 6 3 2 7 19 14 17 14 11 11 7 4 6 10 11 8 11 11 11 5 4 2 3 3 3 5 6 5 3 3 4 5 9 11 12 11 10 11
4 1 1 5 7 10 3 7 9 2 3 11 15 17 23 22 11 5 4 3 10 11 10 11 12 9 6 5 2 2 3 3 3 3 2 2 6 3 7 7 2 8 11 13 15
7 6 5 5 6 4 7 1 2 8 4 11 11 17 28 17 7 1 4 5 9 11 8 11 10 7 7 6 3 4 1 1 1 1 2 4 7 8 14 17 13 15 15 14 14
9 7 7 6 7 4 3 1 2 9 7 15 13 15 20 12 8 3 5 8 8 8 8 8 11 7 7 6 6 3 4 2 1 4 7 9 11 12 19 16 11 8 8 12 16
9 6 6 7 2 2 6 4 4 11 10 16 15 11 15 10 7 5 5 7 7 5 6 6 5 5 8 5 1 3 2 1 3 3 4 7 7 5 1 1 4 8 15 17 19
6 7 9 3 6 12 13 7 8 13 11 19 19 9 19 8 9 6 6 9 10 7 7 8 8 1 7 6 3 2 2 4 4 2 3 6 11 10 11 6 10 17 18 18 16
12 10 9 11 14 17 12 11 8 12 16 23 23 24 11 14 13 8 9 9 9 9 11 10 9 8 4 7 4 3 3 5 7 3 3 3 9 6 2 10 19 22 20 16 14
11 8 8 5 7 10 11 12 10 8 18 22 25 26 7 12 10 7 6 9 9 9 10 9 6 4 4 3 3 6 5 5 7 4 1 7 10 11 12 18 20 20 16 13 14
13 10 7 3 8 15 16 14 15 15 27 20 25 13 9 5 5 8 6 6 5 6 6 3 3 2 2 3 2 4 4 3 4 5 6 13 18 16 19 17 17 11 12 15 16
11 12 13 10 18 20 19 19 17 10 27 9 13 23 18 10 5 6 4 4 3 1 2 1 3 4 5 4 3 2 2 5 6 5 10 9 15 18 18 9 4 7 14 18 19
12 13 18 19 28 23 15 14 14 18 23 32 29 24 10 5 9 8 6 2 3 3 4 3 4 5 5 3 2 3 4 5 6 1 10 13 21 17 2 2 3 8 17 19 23
11 14 12 18 16 17 23 32 22 15 8 12 14 12 5 7 7 10 6 3 5 6 2 2 8 4 0 2 3 1 3 5 5 14 12 10 9 4 7 5 4 8 16 17 19
13 17 20 21 26 27 25 18 8 4 4 9 6 8 7 2 6 8 7 3 3 5 6 6 3 0 0 1 1 1 1 5 8 10 4 10 5 6 2 4 5 12 19 13 17
15 19 12 7 29 13 9 7 8 2 5 8 6 4 7 6 3 6 8 4 6 5 2 3 4 2 1 1 2 4 4 8 8 5 7 5 3 3 2 7 6 16 15 13 15
12 7 24 27 18 12 3 8 0 1 6 3 4 3 6 11 6 2 2 4 2 4 5 4 1 2 3 0 4 4 5 3 3 2 3 1 3 5 3 7 11 15 11 14 15
14 13 11 7 4 3 10 2 2 7 3 4 5 5 8 6 5 4 5 7 3 3 4 1 2 2 2 4 5 5 4 2 2 2 2 4 2 10 9 4 8 11 10 11 12
5 5 6 6 8 10 6 1 10 2 5 3 3 7 5 5 5 5 3 5 5 3 2 1 3 5 6 3 5 4 4 2 3 4 6 3 5 1 1 2 5 7 6 9 11
13 9 3 3 5 2 2 6 4 4 5 6 3 5 4 4 3 1 5 3 3 4 1 1 1 2 3 2 4 3 2 3 3 4 4 5 6 12 5 5 7 7 7 9 9
6 11 13 9 7 7 5 7 4 3 6 3 3 2 3 2 2 3 1 1 2 1 2 2 0 3 3 3 4 3 1 2 3 4 5 5 9 5 3 6 5 5 6 5 7
3 1 7 10 12 10 4 6 6 5 3 2 2 4 3 3 1 2 2 2 1 2 2 3 1 3 2 7 6 4 3 4 3 4 4 6 3 4 4 2 2 2 1 3 5
6 2 8 7 3 4 5 4 4 5 3 1 1 3 2 1 2 1 1 0 5 3 1 2 3 4 6 3 2 6 10 9 5 5 7 8 8 6 4 3 4 3 3 5 5
3 2 10 5 4 4 4 4 2 4 3 3 2 2 1 2 2 2 2 2 5 3 3 2 2 4 2 3 4 6 10 13 11 6 13 9 5 5 6 6 8 9 9 8 6
2 2 6 8 5 8 7 3 4 2 1 1 1 2 3 3 3 1 2 2 3 4 1 1 3 7 8 11 10 10 8 11 14 10 13 17 21 14 11 8 11 14 14 14 12
4 3 1 1 2 4 1 3 5 4 3 3 3 6 3 2 2 3 2 3 5 5 5 3 6 8 16 19 18 20 20 19 20 20 17 22 22 19 13 10 14 17 18 17 17
2 1 2 2 1 2 2 3 4 2 3 3 4 1 3 4 2 3 3 4 4 7 8 5 4 8 10 18 15 17 18 19 20 22 24 25 28 22 26 23 18 17 19 20 19
6 5 2 2 1 3 1 4 6 4 5 4 3 4 6 7 6 7 10 12 9 8 10 7 4 4 7 9 16 16 14 18 14 13 15 17 21 16 13 9 14 14 18 20 19
Wind_Direction
179 204 220 209 217 191 187 171 221 239 230 223 232 190 181 167 142 107 117 164 145 145 136 135 125 133 142 129 78 328 239 191 122 174 103 139 198 137 283 271 276 259 273 282 296
308 251 229 212 202 177 184 156 144 196 206 212 224 187 167 148 119 103 113 128 144 142 135 145 140 143 125 119 55 276 261 87 22 55 103 121 305 340 285 273 273 271 279 289 300
53 311 158 160 201 198 149 228 237 187 144 182 190 202 149 133 130 80 88 125 145 147 158 153 142 129 115 141 95 130 336 115 101 59 26 310 284 276 281 274 2 320 312 301 297
56 66 83 130 174 195 200 165 190 187 151 161 184 176 148 135 157 15 150 156 144 138 138 138 151 138 133 150 139 159 131 24 118 63 313 298 311 270 258 266 295 302 297 298 301
49 59 89 139 150 164 158 62 91 163 178 164 157 130 136 87 68 56 86 144 138 121 145 154 152 144 140 142 159 169 150 188 228 299 298 291 279 279 281 280 288 301 304 305 305
60 75 115 131 149 173 154 195 142 161 135 171 161 144 143 73 49 23 105 132 134 126 125 149 162 134 120 128 253 110 157 205 310 302 299 306 296 330 79 10 294 312 309 304 299
59 86 106 69 134 147 139 133 145 165 152 155 148 138 134 106 37 53 109 123 124 108 117 101 124 157 129 126 112 114 260 193 220 184 324 311 270 234 257 279 290 307 311 306 304
67 78 98 74 126 123 122 119 136 135 146 129 145 145 81 112 96 74 86 93 109 120 127 99 96 92 76 112 144 231 246 226 139 203 173 292 284 135 251 289 297 305 308 307 308
59 68 89 114 128 128 128 133 136 141 139 121 131 124 124 99 87 73 82 93 94 113 119 115 77 84 118 187 188 204 249 228 155 156 292 232 289 280 298 293 294 298 300 302 313
41 55 75 76 148 133 125 118 127 109 119 135 109 106 108 89 66 65 76 84 86 97 84 54 63 123 145 183 213 192 241 235 268 141 298 276 270 282 295 297 294 291 310 318 321
46 70 72 69 135 130 129 119 91 76 66 89 108 100 124 106 65 73 57 76 102 157 180 93 115 141 115 49 25 34 304 288 297 59 315 286 291 290 300 290 258 330 329 330 330
70 97 96 96 123 128 112 99 108 109 71 73 94 102 110 129 94 48 38 112 185 141 155 154 125 103 95 58 34 7 336 319 308 179 313 294 293 289 192 210 302 333 340 342 337
84 111 92 113 122 119 124 116 111 108 91 63 72 71 60 88 54 33 41 67 65 83 99 162 110 136 355 62 6 24 326 345 315 317 266 313 275 159 193 245 276 331 346 350 339
104 118 110 116 109 116 105 109 102 75 89 22 45 24 27 58 61 32 22 21 47 89 66 71 127 79 181 14 295 295 14 307 311 336 304 6 292 264 142 258 258 347 347 351 335
108 127 122 116 130 133 97 40 350 345 77 355 26 44 49 89 141 28 21 45 56 80 263 95 148 186 280 209 212 11 313 306 321 306 321 120 255 249 187 295 338 338 337 336 329
84 101 134 128 130 125 42 333 335 237 66 36 17 24 110 65 63 63 63 87 118 78 69 107 140 269 24 250 240 308 283 302 287 327 249 48 320 282 7 341 327 326 318 329 331
93 110 173 148 182 2 341 8 96 49 178 91 67 73 73 65 88 67 70 66 68 63 32 167 153 140 237 231 192 243 281 317 257 265 358 139 286 264 320 347 320 307 324 331 334
98 116 128 185 233 309 333 205 65 16 51 120 114 87 77 5 61 43 45 67 59 357 93 220 176 194 163 309 348 9 15 26 296 326 327 108 241 291 22 259 328 311 320 321 334
66 77 91 290 269 278 288 63 104 145 152 137 130 65 47 65 6 11 55 51 41 10 79 323 102 135 224 302 309 35 21 23 299 279 279 228 238 258 221 332 342 329 327 331 331
2 45 25 39 69 61 72 90 107 110 124 172 83 294 121 106 202 205 124 104 144 210 299 121 253 186 141 200 212 279 46 246 189 308 292 242 253 246 258 320 335 351 351 343 344
50 87 14 53 49 50 63 82 115 153 180 252 119 131 115 139 35 99 78 134 217 152 307 328 17 144 195 208 183 181 209 225 301 261 268 302 288 153 205 241 300 31 347 300 326
51 40 2 56 48 64 68 96 102 141 208 203 341 54 56 145 108 148 162 317 181 198 313 50 303 259 236 116 269 287 248 245 256 217 229 278 277 158 157 198 210 184 218 248 265
54 16 9 63 91 88 116 103 92 161 185 189 169 258 201 181 207 224 219 143 196 217 349 64 252 294 209 199 204 249 240 241 251 289 258 265 265 168 176 204 211 210 210 213 221
30 12 28 48 56 113 127 112 127 142 162 235 165 216 204 214 221 286 262 141 186 229 55 327 273 259 275 309 314 268 245 227 238 246 261 246 266 255 234 233 234 225 223 225 235
51 63 51 124 89 115 174 160 153 184 215 229 204 242 257 254 241 236 235 194 191 188 196 238 260 266 275 277 278 271 265 258 248 242 255 273 279 282 289 267 244 240 235 233 236
49 3 77 79 90 213 181 165 192 174 232 192 246 178 248 264 319 297 307 230 269 174 207 202 266 288 284 273 268 274 264 254 251 253 256 261 271 281 284 281 281 242 230 234 238
64 56 22 137 211 270 261 180 192 181 202 231 221 247 241 259 256 270 260 263 258 228 215 213 242 270 267 306 301 280 254 230 230 234 236 248 261 286 295 262 275 256 239 242 242